Regional Weather Roundup
Issued by NWS Charleston, SC

Current Version | Previous Version | Graphics & Text | Print | Product List | Glossary On
Versions: 1 2 3 4 5 6 7 8 9 10 11 12 13 14 15 16 17 18 19 20 21 22 23 24 25 26 27 28 29 30 31 32 33 34 35 36 37 38 39 40 41 42 43 44 45 46 47 48 49 50
000
ASUS42 KCHS 192125
RWRCHS

REGIONAL WEATHER ROUNDUP
NATIONAL WEATHER SERVICE CHARLESTON SC
500 PM EDT SUN OCT 19 2014

NOTE: "FAIR" INDICATES FEW OR NO CLOUDS BELOW 12,000 FEET WITH NO
SIGNIFICANT WEATHER AND/OR OBSTRUCTIONS TO VISIBILITY.

NOT ALL STATIONS ARE QUALITY CONTROLLED BY THE NATIONAL
WEATHER SERVICE. USE DATA WITH CAUTION...ESPECIALLY
DEWPOINT OBSERVATIONS.

SCZ027-030-031-034>040-042>050-192200-
...SOUTH CAROLINA...

CITY           SKY/WX    TMP DP  RH WIND       PRES   REMARKS
N CHARLESTON   PTSUNNY   71  46  40 N7        30.07S
WATERFRONT PRK   N/A     70 N/A N/A N6          N/A
FORT JOHNSON   NOT AVBL
JOHNS ISLAND   CLEAR     70  48  46 NW3       30.07S
PINOPOLIS        N/A     75  46  35 SW2       30.00R
MONCKS CORNER  FAIR      68  52  56 CALM      30.07S
SUMMERVILLE    FAIR      70  48  46 N3        30.08S
BEAUFORT MCAS  MOSUNNY   72  47  40 VRB6      30.07S
BEAUFORT ARPT  FAIR      70  50  49 N5        30.07S HAZE
HILTON HEAD IS NOT AVBL
GEORGETOWN     NOT AVBL
WALTERBORO     PTCLDY    70  41  35 N3        30.08S
ORANGEBURG     SUNNY     71  44  37 VRB7      30.07F
BARNWELL       FAIR      72  45  37 NE3       30.07S
AIKEN          FAIR      70  50  49 CALM      30.10S
MANNING        FAIR      72  46  40 NE3       30.07S
KINGSTREE      NOT AVBL
COLUMBIA       MOSUNNY   72  45  37 NW5       30.06F
SUMTER         SUNNY     70  46  41 CALM      30.05F
FLORENCE       SUNNY     70  44  39 N8        30.07S
MYRTLE BEACH   NOT AVBL
N MYRTLE BEACH SUNNY     69  45  41 N5        30.06S

$$

GAZ063-065-086>088-099>101-113>116-118-119-134-136>141-150-192200-
...GEORGIA...

CITY           SKY/WX    TMP DP  RH WIND       PRES   REMARKS
SAVANNAH ARPT  PTSUNNY   74  47  38 N3        30.07F
HUNTER AAF     SUNNY     73  48  42 NW5       30.05F
FORT STEWART   SUNNY     72  48  42 NE5       30.06S
STATESBORO     NOT AVBL
SYLVANIA       PTCLDY    76  52  42 CALM      30.08S
CLAXTON        FAIR      72  46  40 CALM      30.07S
THOMSON        MOSUNNY   72  55  55 CALM      30.11S
AUGUSTA-BUSH   MOSUNNY   73  44  35 VRB3      30.06F
AUGUSTA-DANIEL MOSUNNY   73  43  33 VRB3      30.07F
SWAINSBORO     FAIR      77  46  33 MISG      30.07S
VIDALIA        SUNNY     72  50  46 CALM      30.07S
ALMA           SUNNY     74  48  39 N3        30.06F
WAYCROSS       SUNNY     77  53  43 E5        30.05S
JESUP          FAIR      77  52  41 NE3       30.06F
BRUNSWICK      SUNNY     72  50  46 NE8       30.07F
SAINT SIMONS   SUNNY     68  52  56 E9        30.07S

$$

SCZ027-028-034-036>038-045-046-048>050-GAZ119-141-192200-
...LAKE AND SUPPLEMENTAL COASTAL OBSERVATIONS...

STATION/POSITION TIME  TEMP    WIND        PRES    WAVE   SWELL
                       AIR SEA DIR/SP/G            HT/PER HT/PER/DIR
                 (UTC) (F)     (DEG/KT/KT) (MB)    (FT/S) (FT/S/D)
UPR LAKE MARION  NOT AVBL
WINYAH BAY       2100   68     320/  5     1018.0S
LAKE MURRAY      2000   71     180/  3/  5 1017.6F
ACE BASIN NERRS  2100   71      10/  2     1018.0S
FORT PULASKI     2100   69     100/  5/  6 1018.5F
SAPELO ISLAND    NOT AVBL

$$

ANZ835-935-AMZ111-154-330-350-352-354-374-450-454-472-192200-
...C-MAN AND BUOY OBSERVATIONS...

STATION/POSITION TIME  TEMP    WIND        PRES    WAVE   SWELL
                       AIR SEA DIR/SP/G            HT/PER HT/PER/DIR
                 (UTC) (F)     (DEG/KT/KT) (MB)    (FT/S) (FT/S/D)
FOLLY BEACH CMAN 2100   68     350/  4/  6 1018.6S
BUOY 41004       2100   66 79   10/ 12/ 14 1017.6F   4/ 6   3/ 6
BUOY 41008       2100   68 76   40/ 10/ 14 1018.2F   4/ 7   3/ 60/ 7
5E ST. MARYS GA  2100      78                N/A     4/ 7   2/100/13
FRYING PAN BUOY  2100   65 76  350/ 10/ 12 1018.3R   3/ 5   3/ 40/ 5
BUOY 41025       2100   63     330/ 16/ 21 1016.8R   5/10   3/ 50/10
CAPE LOOKOUT NC  2100   64     350/ 10/ 15 1017.3R
BUOY 41002       2029   72 80  350/ 17/ 21 1015.8R   7/ 7   3/ 80/10
BUOY 41010       2100   80 81   10/ 12/ 14 1015.2F   4/ 6   3/320/ 6
BUOY 41012       NOT AVBL
ST AUGUSTINE FL  2100   73      30/ 15/ 16 1017.5F
CAPERS NEARSHORE 2000   69      20/  6/  8   N/A
FRIPP NEARSHORE  NOT AVBL


$$



USA.gov is the U.S. government's official web portal to all federal, state and local government web resources and services.